Find Starlink 37624

NORAD ID: 69833 Int'l Des: 2026-154 Owner: SPXS Country: US Constellation: starlink operational
LEOCIRCULAR

現在のビュー

3D地球を読み込み中...

About Starlink 37624

Starlink 37624 (NORAD 69833) is a starlink constellation satellite (v2 mini) launched Jul 5, 2026 by SPXS of US. It operates in LEO, CIRCULAR orbit with a mass of 575.00 kg.

次回通過

Passes for default location (London). Set your location on the main map for personalized predictions.

高度履歴

Loading altitude history...

軌道要素

1 69833U 26154Q 26235.84946724 .00027388 00000-0 79285-3 0 9991
2 69833 53.1600 100.9443 0001262 106.7308 253.3834 15.35414412 8997
Epoch: Aug 23, 2026 • Age: 13 hours

現在のステータス

高度 465.3 km
遠地点 / 近地点 N/A
速度 7.64 km/s
衛星直下点 52.83°N, 66.4°E
打ち上げ日 Jul 5, 2026
運用期間 0.1 years
タイプ internet

技術仕様

分類 Payload
質量 575.00 kg
乾燥質量 530.00 kg
総質量 575.00 kg
長さ 0.30 m
直径 4.10 m
スパン 29.00 m
形状 Box + pan
製造者 SPXS
バスタイプ Starlink V2MO
フェーズステータス In Orbit
所有者/国 SPXS/US

Most Searched